Other Surface Observations
Issued by NWS Charleston, SC

Home | Current Version | Previous Version | Text Only | Print | Product List | Glossary On
Versions: 1 2 3 4 5 6 7 8 9 10 11 12 13 14 15 16 17 18 19 20 21 22 23 24 25 26 27 28 29 30 31 32 33 34 35 36 37 38 39 40 41 42 43 44 45 46 47 48 49 50
000
SXUS52 KCHS 252127
OSOCHS
MARINE OBSERVATIONS
NATIONAL WEATHER SERVICE CHARLESTON SC
500 PM EDT MON MAY 25 2015

...DOWNTOWN CHARLESTON AND HARBOR...

CITY           SKY/WX    TMP DP  RH WIND       PRES   REMARKS
WATERFRONT PRK   N/A     77  69  76 E12       30.24F
FORT JOHNSON   NOT AVBL

...LAKE MOULTRIE...

CITY           SKY/WX    TMP DP  RH WIND       PRES   REMARKS
PINOPOLIS        N/A     84  66  54 CALM      30.20S

...LAKE AND SUPPLEMENTAL COASTAL OBSERVATIONS...

STATION/POSITION TIME  TEMP    WIND        PRES    WAVE   SWELL
                       AIR SEA DIR/SP/G            HT/PER HT/PER/DIR
                 (UTC) (F)     (DEG/KT/KT) (MB)    (FT/S) (FT/S/D)
FORT PULASKI     2100   77 77   80/ 14/ 16 1024.5F
SAPELO ISLAND    2100   82     100/  9     1023.0F
UPR LAKE MARION  NOT AVBL
WINYAH BAY       2000   76     100/  8     1025.0
LAKE MURRAY      2100   82     140/  4/  8 1023.4F
ACE BASIN NERRS  NOT AVBL


...C-MAN AND BUOY OBSERVATIONS...

STATION/POSITION TIME  TEMP    WIND        PRES    WAVE   SWELL
                       AIR SEA DIR/SP/G            HT/PER HT/PER/DIR
                 (UTC) (F)     (DEG/KT/KT) (MB)    (FT/S) (FT/S/D)
BUOY 41004       2050   76 76  100/ 10/ 12 1024.7F   4/ 6   3/ 6
BUOY 41008       2050   77 77  100/  8/ 10 1023.8F   4/ 8   3/100/ 8
FOLLY BEACH CMAN 2100   77      80/ 10/ 11 1025.2F
CAPERS NS BUOY   2008   76      90/ 10/ 12 1025.6F
FRIPP NS BUOY    2000   77      90/ 12/ 12 1024.0F
5E ST. MARYS GA  2021      79                N/A     3/ 8


STATION/POSITION TIME  TEMP    WIND        PRES    WAVE   SWELL
                       AIR SEA DIR/SP/G            HT/PER HT/PER/DIR
                 (UTC) (F)     (DEG/KT/KT) (MB)    (FT/S) (FT/S/D)
FRYING PAN BUOY  2050   76 75  130/ 10/ 14 1026.4F   3/ 7   2/120/ 7
BUOY 41025       2050   74 78  160/ 10/ 14 1026.8F   2/ 8   2/ 60/ 8
CAPE LOOKOUT NC  2100   74     140/  9/ 11 1026.2F
BUOY 41002       2050   75 75  110/ 12/ 14 1026.4S   3/ 6   2/ 90/ 6
BUOY 41010       2020   79 82  100/ 14/ 16 1023.0F
ST AUGUSTINE FL  2100   78 79  110/ 14/ 15 1023.3F

$$



USA.gov is the U.S. government's official web portal to all federal, state and local government web resources and services.